Hourly Data Report for December 29, 2003

SHERBROOKE A
QUEBEC

45°26'00.000" N
71°41'00.000" W
241.40 m
7028124
71610
YSC

Download Data

Hourly Data (December 2003)
Hourly Data Report for December 29, 2003
TIME
LST
Temp Definition
°C
Dew Point Definition
°C
Rel Hum Definition
%
Precip. Amount Definition
mm

Wind Dir Definition
10's deg

Wind Spd Definition
km/h
Visibility Definition
km
Stn Press Definition
kPa
Hmdx Definition


Wind Chill Definition


Weather Definition


00:00 -12.0 -13.8 86   6 6 12.9 99.00   -16  
01:00 -13.2 -15.1 86   7 6 15.0 98.95   -17  
02:00 -11.9 -14.1 84   7 6 15.0 98.97   -16  
03:00 -13.0 -14.7 87   10 4 15.0 98.94   -16  
04:00 -12.8 -14.7 86     0 15.0 98.88      
05:00 -12.8 -14.5 87   3 4 15.0 98.86   -15  
06:00 -12.6 -14.7 84   10 6 15.0 98.84   -17  
07:00 -13.9 -15.8 86   12 6 15.0 98.84   -18  
08:00 -11.3 -13.3 85   12 4 24.1 98.86   -14 Clear
09:00 -8.9 -10.5 88   31 4 24.1 98.86   -11 Clear
10:00 -4.0 -6.0 86     0 24.1 98.80     Clear
11:00 -0.2 -4.7 72     0 24.1 98.62     Mainly Clear
12:00 1.1 -5.3 62     0 24.1 98.51     Mainly Clear
13:00 3.3 -5.1 54     0 24.1 98.48     Mainly Clear
14:00 3.1 -2.7 66   13 9 24.1 98.39     Mainly Clear
15:00 4.7 -1.6 64   33 4 24.1 98.39     Mainly Clear
16:00 0.0 -2.6 83     0 24.1 98.32     Mainly Clear
17:00 -0.7 -2.1 90   8 4 24.1 98.33   -2 Mainly Clear
18:00 -1.5 -2.9 90   7 6 0.5 98.35   -4  
19:00 1.1 -1.0 86   9 4 15.0 98.33      
20:00 0.9 -1.3 85   7 4 15.0 98.28      
21:00 0.6 -0.9 90     0 11.3 98.29      
22:00 1.0 -0.8 88     0 15.0 98.28      
23:00 1.1 -1.0 86   8 6 15.0 98.15      

Notes on Data Quality.

Legend

  • E = Estimated
  • M = Missing
  • NA = Not Available*
  • [empty] = Indicates an unobserved value
Date modified: